{"data":{"norad_id":58162,"epoch":"2026-05-25T04:42:02.062080Z","epoch_age_seconds":68295,"freshness":"FRESH","line1":"1 58162U 23166N   26145.19585720 -.00000139  00000+0  74357-5 0  9999","line2":"2 58162  53.1602 224.1846 0001010  98.2647 261.8468 15.30195693144899","mean_motion":15.30195693,"eccentricity":0.000101,"inclination_deg":53.1602,"raan_deg":224.1846,"arg_perigee_deg":98.2647,"mean_anomaly_deg":261.8468,"bstar":7.4357e-6,"rev_number":14489,"period_min":94.105610582188,"perigee_km":474.53573951728,"apogee_km":475.92011923301,"semimajor_km":6853.3649293751,"source":"CELESTRAK","updated_at":"2026-05-25T13:38:18.539069Z"}}